Weather History for Salinas, CA

Change the Weather History Date:

Tuesday, April 15, 2014

  Actual Average Record
Temperature  
Mean Temperature 59 °F 57 °F  
Max Temperature 65 °F 67 °F 96 °F (1966)
Min Temperature 52 °F 46 °F 35 °F (1932)
Degree Days  
Heating Degree Days 6 9  
Month to date heating degree days 95 137  
Since 1 July heating degree days 1725 2271  
Cooling Degree Days 0 0  
Month to date cooling degree days 3 0  
Year to date cooling degree days 6 1  
Growing Degree Days 8 (Base 50)    
Moisture  
Dew Point 50 °F    
Average Humidity 77    
Maximum Humidity 93    
Minimum Humidity 60    
Precipitation  
Precipitation 0.00 in 0.03 in 1.04 in (1978)
Month to date precipitation 0.37 0.57  
Year to date precipitation 4.72 7.92  
Since 1 July precipitation 5.66 12.03  
Sea Level Pressure  
Sea Level Pressure 30.02 in    
Wind  
Wind Speed 6 mph (West)    
Max Wind Speed 17 mph    
Max Gust Speed 22 mph    
Visibility 7 miles    
Events      
T = Trace of Precipitation, MM = Missing Value Source: NWS Daily Summary

Daily Weather History Graph

Daily Weather History Graph

Search for Another Location

Airport:

Trip Planner

Search our weather history database for the weather conditions in past years. The results will help you decide how hot, cold, wet, or windy it might be!

Date:

Astronomy

Apr. 15, 2014 Rise Set
Actual Time 6:32 AM PDT 7:40 PM PDT
Civil Twilight 6:05 AM PDT 8:07 PM PDT
Nautical Twilight 5:34 AM PDT 8:39 PM PDT
Astronomical Twilight 5:01 AM PDT 9:12 PM PDT
Moon 8:26 PM PDT (4/15) 6:44 AM PDT (4/15)
Length of Visible Light 14h 01m
Length of Day
13h 08m
Full, 100% of the Moon is Illuminated
Apr 15
Full
Apr 22
Last Quarter
Apr 28
New
May 6
First Quarter
May 14
Full

Hourly Weather History & Observations

Time (PDT) Temp. Dew Point Humidity Pressure Visibility Wind Dir Wind Speed Gust Speed Precip Events Conditions
12:53 AM 54.0 °F 51.1 °F 90% 30.10 in 8.0 mi WSW 3.5 mph - N/A   Overcast
1:53 AM 54.0 °F 50.0 °F 86% 30.09 in 8.0 mi Calm Calm - N/A   Overcast
2:53 AM 54.0 °F 50.0 °F 86% 30.09 in 8.0 mi Calm Calm - N/A   Overcast
3:53 AM 53.1 °F 50.0 °F 89% 30.07 in 8.0 mi Calm Calm - N/A   Overcast
4:53 AM 53.1 °F 50.0 °F 89% 30.06 in 7.0 mi Calm Calm - N/A   Overcast
5:53 AM 53.1 °F 50.0 °F 89% 30.05 in 7.0 mi Calm Calm - N/A   Overcast
6:53 AM 53.1 °F 50.0 °F 89% 30.06 in 5.0 mi South 3.5 mph - N/A   Overcast
7:53 AM 53.1 °F 50.0 °F 89% 30.08 in 6.0 mi WSW 5.8 mph - N/A   Overcast
8:53 AM 53.1 °F 50.0 °F 89% 30.09 in 4.0 mi North 3.5 mph - N/A   Overcast
9:53 AM 55.0 °F 51.1 °F 86% 30.07 in 6.0 mi Calm Calm - N/A   Overcast
10:53 AM 59.0 °F 51.1 °F 75% 30.06 in 7.0 mi Calm Calm - N/A   Overcast
11:02 AM 59.0 °F 51.8 °F 77% 30.04 in 7.0 mi Calm Calm - N/A   Mostly Cloudy
11:20 AM 59.0 °F 51.8 °F 77% 30.03 in 7.0 mi Variable 3.5 mph - N/A   Partly Cloudy
11:53 AM 63.0 °F 51.1 °F 65% 30.04 in 8.0 mi West 9.2 mph - N/A   Clear
12:53 PM 63.0 °F 51.1 °F 65% 30.03 in 9.0 mi West 13.8 mph - N/A   Clear
1:53 PM 62.1 °F 50.0 °F 65% 30.02 in 9.0 mi West 13.8 mph 21.9 mph N/A   Clear
2:53 PM 63.0 °F 48.9 °F 60% 30.01 in 9.0 mi West 10.4 mph 18.4 mph N/A   Clear
3:53 PM 63.0 °F 48.9 °F 60% 30.00 in 9.0 mi WNW 12.7 mph - N/A   Clear
4:53 PM 61.0 °F 48.9 °F 64% 29.99 in 8.0 mi West 13.8 mph - N/A   Clear
5:53 PM 59.0 °F 48.9 °F 69% 29.97 in 8.0 mi West 11.5 mph - N/A   Clear
6:53 PM 57.9 °F 48.9 °F 72% 29.97 in 7.0 mi West 11.5 mph - N/A   Clear
7:53 PM 55.9 °F 48.0 °F 75% 29.97 in 7.0 mi West 10.4 mph - N/A   Partly Cloudy
8:20 PM 55.4 °F 48.2 °F 77% 29.94 in 8.0 mi WNW 9.2 mph - N/A   Mostly Cloudy
8:53 PM 55.0 °F 48.0 °F 77% 29.99 in 8.0 mi West 8.1 mph - N/A   Overcast
9:24 PM 55.4 °F 48.2 °F 77% 29.96 in 7.0 mi Variable 6.9 mph - N/A   Mostly Cloudy
9:53 PM 54.0 °F 48.0 °F 80% 29.99 in 8.0 mi West 8.1 mph - N/A   Overcast
10:11 PM 53.6 °F 48.2 °F 82% 29.96 in 7.0 mi West 10.4 mph - N/A   Scattered Clouds
10:53 PM 54.0 °F 46.9 °F 77% 29.98 in 7.0 mi WNW 8.1 mph - N/A   Partly Cloudy
11:53 PM 53.1 °F 46.9 °F 80% 29.97 in 7.0 mi NW 5.8 mph - N/A   Clear